Location: ??????????
(54.7560°N, 39.1389°E)
Time: 04:24:24
(UTC+00:00)

USA 238 - Pass Details

Date: 19 May 2025
Orbit: 897 x 1314 km, 63.4° (Epoch: 11 June)

Event Time Altitude Azimuth Distance (km) Brightness Sun altitude
Rises 23:06:38 0° 309° (NW) 3,878 6.8 -11.9°
Reaches altitude 10° 23:09:11 10° 309° (NW) 2,977 6.2 -11.7°
Maximum altitude 23:16:23 87° 39° (NE) 1,200 4.0 -11.2°
Drops below altitude 10° 23:24:17 10° 131° (SE) 3,250 6.1 -10.7°
Sets 23:27:11 0° 131° (SE) 4,252 6.7 -10.5°
